When you browse on this site, cookies collect data to enhance your experience and personalize the content and advertising you see.
Visit our Privacy Policy to learn more. By continuing to use the site, you agree to this use of cookies and data.
  • In Latvia
  • List of Countries
  • For 7 days
  • Water Temperature
  • Weather Map
  • Weather Widgets
  • user-avatar
    Login

    Hourly Weather Naiham

    Today, 23 September, Monday

    Time Temperature Precipitation Wind Pressure Humidity
    00:00 +17°C° 0 mm 0 mps 710 mmHg 82%
    01:00 +17°C° 0 mm 0 mps 710 mmHg 82%
    02:00 +17°C° 0 mm 0 mps 710 mmHg 83%
    03:00 +16°C° 0 mm 0 mps 710 mmHg 84%
    04:00 +16°C° 0 mm 0 mps 709 mmHg 85%
    05:00 +17°C° 0 mm 0 mps 710 mmHg 83%
    06:00 +17°C° 0 mm 0 mps 710 mmHg 81%
    07:00 +19°C° 0 mm 0 mps 711 mmHg 81%
    08:00 +21°C° 0 mm 0 mps 712 mmHg 71%
    09:00 +25°C° 0 mm 1 mps 712 mmHg 61%
    10:00 +28°C° 0 mm 2 mps 712 mmHg 50%
    11:00 +28°C° 0 mm 2 mps 711 mmHg 49%
    12:00 +28°C° 0 mm 2 mps 711 mmHg 47%
    13:00 +29°C° 0 mm 2 mps 710 mmHg 46%
    14:00 +28°C° 0 mm 2 mps 710 mmHg 49%
    15:00 +28°C° 0 mm 2 mps 710 mmHg 51%
    16:00 +27°C° 0 mm 2 mps 709 mmHg 54%
    17:00 +25°C° 0 mm 1 mps 710 mmHg 63%
    18:00 +23°C° 0 mm 1 mps 710 mmHg 72%
    19:00 +19°C° 0 mm 0 mps 710 mmHg 81%
    20:00 +18°C° 0 mm 0 mps 710 mmHg 82%
    21:00 +18°C° 0 mm 0 mps 711 mmHg 84%
    22:00 +17°C° 0 mm 0 mps 711 mmHg 86%
    23:00 +17°C° 0 mm 0 mps 711 mmHg 87%

    Tomorrow, 24 September, Tuesday

    Time Temperature Precipitation Wind Pressure Humidity
    00:00 +16°C° 0 mm 0 mps 711 mmHg 89%
    01:00 +16°C° 0 mm 0 mps 711 mmHg 91%
    02:00 +16°C° 0 mm 0 mps 711 mmHg 92%
    03:00 +16°C° 0 mm 0 mps 710 mmHg 93%
    04:00 +15°C° 0 mm 0 mps 710 mmHg 94%
    05:00 +16°C° 0 mm 0 mps 711 mmHg 91%
    06:00 +17°C° 0 mm 0 mps 711 mmHg 88%
    07:00 +17°C° 0 mm 0 mps 712 mmHg 85%
    08:00 +22°C° 0 mm 1 mps 712 mmHg 73%
    09:00 +25°C° 0 mm 1 mps 712 mmHg 60%
    10:00 +28°C° 0 mm 1 mps 713 mmHg 48%
    11:00 +28°C° 0 mm 1 mps 712 mmHg 46%
    12:00 +29°C° 0 mm 1 mps 712 mmHg 44%
    13:00 +29°C° 0 mm 2 mps 711 mmHg 42%
    14:00 +29°C° 0 mm 1 mps 711 mmHg 47%
    15:00 +28°C° 0 mm 1 mps 710 mmHg 51%
    16:00 +27°C° 0 mm 1 mps 709 mmHg 55%
    17:00 +25°C° 0 mm 1 mps 710 mmHg 64%
    18:00 +23°C° 0 mm 1 mps 710 mmHg 72%
    19:00 +19°C° 0 mm 0 mps 710 mmHg 80%
    20:00 +18°C° 0 mm 0 mps 711 mmHg 81%
    21:00 +18°C° 0 mm 0 mps 711 mmHg 83%
    22:00 +17°C° 0 mm 0 mps 712 mmHg 84%
    23:00 +17°C° 0 mm 0 mps 711 mmHg 86%

    Day after tomorrow, 25 September, Wednesday

    Time Temperature Precipitation Wind Pressure Humidity
    00:00 +17°C° 0 mm 0 mps 711 mmHg 87%
    01:00 +16°C° 0 mm 0 mps 711 mmHg 88%
    02:00 +16°C° 0 mm 0 mps 710 mmHg 89%
    03:00 +16°C° 0 mm 0 mps 710 mmHg 89%
    04:00 +15°C° 0 mm 0 mps 710 mmHg 90%
    05:00 +16°C° 0 mm 0 mps 711 mmHg 88%
    06:00 +17°C° 0 mm 0 mps 711 mmHg 85%
    07:00 +17°C° 0 mm 0 mps 711 mmHg 83%
    08:00 +20°C° 0 mm 0 mps 712 mmHg 72%
    09:00 +25°C° 0 mm 1 mps 712 mmHg 61%
    10:00 +28°C° 0 mm 1 mps 713 mmHg 50%
    11:00 +29°C° 0 mm 1 mps 712 mmHg 47%
    12:00 +29°C° 0 mm 1 mps 712 mmHg 44%
    13:00 +30°C° 0 mm 1 mps 711 mmHg 41%
    14:00 +29°C° 0 mm 1 mps 711 mmHg 46%
    15:00 +28°C° 0 mm 1 mps 710 mmHg 51%
    16:00 +27°C° 0 mm 1 mps 710 mmHg 56%
    17:00 +26°C° 0 mm 1 mps 710 mmHg 63%
    18:00 +24°C° 0 mm 1 mps 710 mmHg 69%
    19:00 +21°C° 0 mm 0 mps 711 mmHg 75%
    20:00 +20°C° 0 mm 0 mps 711 mmHg 78%
    21:00 +19°C° 0 mm 0 mps 712 mmHg 81%
    22:00 +18°C° 0 mm 0 mps 712 mmHg 84%
    23:00 +18°C° 0 mm 0 mps 712 mmHg 85%

    26 September, Thursday

    Time Temperature Precipitation Wind Pressure Humidity
    00:00 +17°C° 0 mm 0 mps 711 mmHg 86%
    01:00 +17°C° 0 mm 0 mps 711 mmHg 87%
    02:00 +17°C° 0 mm 0 mps 711 mmHg 88%
    03:00 +17°C° 0 mm 0 mps 711 mmHg 88%
    04:00 +16°C° 0 mm 0 mps 711 mmHg 89%
    05:00 +17°C° 0 mm 0 mps 711 mmHg 87%
    06:00 +17°C° 0 mm 0 mps 711 mmHg 85%
    07:00 +18°C° 0 mm 0 mps 712 mmHg 83%
    08:00 +21°C° 0 mm 0 mps 712 mmHg 72%
    09:00 +24°C° 0 mm 0 mps 712 mmHg 61%
    10:00 +28°C° 0 mm 1 mps 713 mmHg 50%
    11:00 +29°C° 0 mm 1 mps 712 mmHg 48%
    12:00 +29°C° 0 mm 1 mps 712 mmHg 47%
    13:00 +29°C° 0 mm 1 mps 711 mmHg 45%
    14:00 +29°C° 0 mm 1 mps 711 mmHg 49%
    15:00 +28°C° 0 mm 1 mps 710 mmHg 52%
    16:00 +28°C° 0 mm 1 mps 710 mmHg 55%
    17:00 +26°C° 0 mm 1 mps 710 mmHg 64%
    18:00 +24°C° 0 mm 1 mps 710 mmHg 72%
    19:00 +19°C° 0 mm 0 mps 710 mmHg 81%
    20:00 +19°C° 0 mm 0 mps 710 mmHg 82%
    21:00 +19°C° 0 mm 0 mps 711 mmHg 83%
    22:00 +18°C° 0 mm 0 mps 711 mmHg 84%
    23:00 +19°C° 0 mm 0 mps 711 mmHg 82%

    27 September, Friday

    Time Temperature Precipitation Wind Pressure Humidity
    00:00 +19°C° 0 mm 0 mps 711 mmHg 81%
    01:00 +19°C° 0 mm 0 mps 711 mmHg 79%
    02:00 +19°C° 0 mm 0 mps 711 mmHg 79%
    03:00 +19°C° 0 mm 0 mps 711 mmHg 79%
    04:00 +19°C° 0 mm 0 mps 711 mmHg 80%
    05:00 +19°C° 0 mm 0 mps 711 mmHg 80%
    06:00 +19°C° 0 mm 0 mps 711 mmHg 80%
    07:00 +19°C° 0 mm 0 mps 712 mmHg 80%
    08:00 +22°C° 0 mm 0 mps 712 mmHg 70%
    09:00 +26°C° 0 mm 1 mps 712 mmHg 61%
    10:00 +28°C° 0 mm 1 mps 713 mmHg 51%
    11:00 +28°C° 0 mm 1 mps 712 mmHg 50%
    12:00 +28°C° 0 mm 1 mps 712 mmHg 49%
    13:00 +28°C° 0 mm 1 mps 711 mmHg 49%
    14:00 +28°C° 0 mm 1 mps 710 mmHg 51%
    15:00 +28°C° 0 mm 1 mps 710 mmHg 52%
    16:00 +28°C° 0 mm 1 mps 709 mmHg 54%
    17:00 +25°C° 0 mm 1 mps 709 mmHg 64%
    18:00 +23°C° 0 mm 1 mps 709 mmHg 73%
    19:00 +19°C° 0 mm 0 mps 709 mmHg 82%
    20:00 +19°C° 0 mm 0 mps 710 mmHg 84%
    21:00 +18°C° 0 mm 0 mps 710 mmHg 85%
    22:00 +18°C° 0 mm 0 mps 711 mmHg 87%
    23:00 +17°C° 0 mm 0 mps 711 mmHg 88%

    28 September, Saturday

    Time Temperature Precipitation Wind Pressure Humidity
    00:00 +17°C° 0 mm 0 mps 710 mmHg 89%
    01:00 +17°C° 0 mm 0 mps 710 mmHg 90%
    02:00 +17°C° 0 mm 0 mps 710 mmHg 90%
    03:00 +16°C° 0 mm 0 mps 710 mmHg 91%
    04:00 +16°C° 0 mm 0 mps 710 mmHg 91%
    05:00 +17°C° 0 mm 0 mps 710 mmHg 89%
    06:00 +17°C° 0 mm 0 mps 711 mmHg 86%
    07:00 +18°C° 0 mm 0 mps 711 mmHg 84%
    08:00 +21°C° 0 mm 0 mps 711 mmHg 73%
    09:00 +26°C° 0 mm 1 mps 712 mmHg 62%
    10:00 +29°C° 0 mm 1 mps 712 mmHg 51%
    11:00 +29°C° 0 mm 1 mps 712 mmHg 49%
    12:00 +29°C° 0 mm 1 mps 711 mmHg 48%
    13:00 +30°C° 0 mm 1 mps 710 mmHg 46%
    14:00 +29°C° 0 mm 1 mps 710 mmHg 50%
    15:00 +28°C° 0 mm 1 mps 709 mmHg 53%
    16:00 +28°C° 0 mm 1 mps 709 mmHg 56%
    17:00 +26°C° 0 mm 1 mps 709 mmHg 66%
    18:00 +24°C° 0 mm 1 mps 709 mmHg 75%
    19:00 +20°C° 0 mm 0 mps 709 mmHg 84%
    20:00 +19°C° 0 mm 0 mps 710 mmHg 86%
    21:00 +19°C° 0 mm 0 mps 710 mmHg 88%
    22:00 +18°C° 0 mm 0 mps 711 mmHg 91%
    23:00 +18°C° 0 mm 0 mps 710 mmHg 92%
    Show more